This is the latest recevied weather packets stored in our database for station/object S59DKS-10. If no packets are shown the sender has not sent any weather packets the latest 10 day(s).
| Time | Temp. | Humidity | Pressure | Rain* | Wind** | Luminosity | Snow |
|---|---|---|---|---|---|---|---|
| 1777548942 | 12.78° C | 29% | 1026 hPa | - | - | - | - |
| 1777548043 | 12.78° C | 29% | 1026.1 hPa | - | - | - | - |
| 1777547141 | 12.22° C | 29% | 1025.7 hPa | - | - | - | - |
| 1777546312 | 12.22° C | 30% | 1026.2 hPa | - | - | - | - |
| 1777546242 | 12.22° C | 30% | 1026.2 hPa | - | - | - | - |
| 1777545343 | 11.67° C | 29% | 1026.2 hPa | - | - | - | - |
| 1777544444 | 11.67° C | 30% | 1026.4 hPa | - | - | - | - |
| 1777543546 | 11.67° C | 29% | 1026 hPa | - | - | - | - |
| 1777542646 | 11.67° C | 32% | 1026.6 hPa | - | - | - | - |
| 1777541747 | 11.11° C | 31% | 1026.5 hPa | - | - | - | - |
| 1777540848 | 11.11° C | 31% | 1026.4 hPa | - | - | - | - |
| 1777539949 | 11.11° C | 32% | 1026.2 hPa | - | - | - | - |
| 1777539050 | 10.56° C | 32% | 1026.6 hPa | - | - | - | - |
| 1777538151 | 10° C | 34% | 1026.3 hPa | - | - | - | - |
| 1777537252 | 8.89° C | 35% | 1026.1 hPa | - | - | - | - |
| 1777536353 | 9.44° C | 34% | 1026.1 hPa | - | - | - | - |
| 1777535454 | 8.89° C | 35% | 1025.6 hPa | - | - | - | - |
| 1777534555 | 8.33° C | 35% | 1025.8 hPa | - | - | - | - |
| 1777533656 | 8.33° C | 36% | 1025.7 hPa | - | - | - | - |
| 1777532756 | 7.78° C | 36% | 1025.4 hPa | - | - | - | - |
| 1777531895 | 7.78° C | 36% | 1025.6 hPa | - | - | - | - |
| 1777531857 | 7.78° C | 36% | 1025.6 hPa | - | - | - | - |
| 1777530958 | 8.33° C | 35% | 1025.1 hPa | - | - | - | - |
| 1777530059 | 8.33° C | 35% | 1024.9 hPa | - | - | - | - |
| 1777529160 | 8.89° C | 35% | 1024.8 hPa | - | - | - | - |
* Rain since midnight (hover to see other rain measurements)
** Current wind speed in m/s (hover to see current wind gust speed)